Location: Hermaringen
(48.5952°N, 10.2585°E)
Time: 00:29:26
(UTC+00:00)

Altair - Pass Details

Date: 24 February 2026
Orbit: 1502 x 1682 km, 47.2° (Epoch: 10 March)

Event Time Altitude Azimuth Distance (km) Brightness Sun altitude
Rises 00:28:51 0° 190° (S) 4,630 - -49.2°
Reaches altitude 10° 00:32:45 10° 176° (S) 3,645 - -48.9°
Maximum altitude 00:39:10 22° 131° (SE) 2,835 - -48.5°
Exits shadow 00:43:39 15° 96° (E) 3,271 9.3 -48.2°
Drops below altitude 10° 00:45:38 10° 85° (E) 3,677 9.7 -48.0°
Sets 00:49:33 0° 72° (ENE) 4,682 10.5 -47.7°
